GFSFLT2_prec_cloud_213.txt.gz
Cloud_Cover
100 77 18 42 5 5 5 5 0 0 3 5 5 0 0 4 4 4 46 25 40 99 100 100 87 37 15 4 0 0 20 100
22 5 5 29 14 8 5 5 0 0 2 5 5 6 0 0 3 0 22 2 84 0 1 3 4 84 10 4 0 0 5 100
72 98 100 80 20 7 35 10 1 9 3 5 81 4 4 5 6 0 0 0 0 1 3 3 0 0 0 2 12 19 88 99
43 5 4 2 0 7 5 3 4 2 4 7 5 10 54 95 80 0 5 0 0 0 0 2 5 4 5 5 5 20 98 100
1 5 40 14 1 32 2 6 5 9 16 15 14 68 91 98 100 45 55 21 31 3 0 5 0 2 5 6 7 5 7 100
0 0 13 32 16 12 54 48 38 56 92 82 34 18 15 61 100 60 33 11 10 0 3 3 0 0 2 12 95 73 50 100
0 12 31 32 5 42 31 100 100 100 100 30 28 91 80 100 92 93 23 5 5 1 1 0 0 0 0 3 5 70 100 100
19 19 39 57 28 6 100 97 100 100 100 98 62 26 100 100 100 98 59 5 4 3 3 0 1 2 4 2 0 5 59 100
5 40 55 20 33 38 87 96 100 100 100 98 25 100 100 100 100 100 100 53 5 1 0 0 0 0 0 0 3 5 6 61
28 21 100 100 100 96 99 56 57 44 54 62 32 18 25 7 70 99 99 76 28 5 0 0 1 2 5 0 0 1 0 5
29 33 84 99 100 100 98 100 100 100 100 100 100 92 93 32 54 16 99 88 65 66 98 23 7 4 4 5 0 0 4 0
18 30 86 100 100 100 100 100 100 100 100 83 100 100 99 90 70 98 93 100 99 100 100 100 100 100 29 5 5 5 5 5
56 34 75 100 99 100 100 100 100 100 100 100 100 100 100 100 100 65 100 100 100 100 100 93 100 81 98 25 0 3 5 60
56 42 49 62 100 100 100 100 98 99 100 100 100 100 100 100 100 100 100 100 100 100 100 22 5 19 56 5 17 3 5 86
100 100 90 100 100 100 100 100 100 100 100 100 100 100 100 100 100 100 100 100 100 100 100 100 54 50 52 13 5 16 38 18
100 100 100 100 100 100 100 100 100 100 100 100 100 100 100 100 100 100 100 100 100 100 100 100 100 97 34 5 17 28 5 33
100 100 100 100 100 100 100 100 100 100 100 100 100 100 100 100 100 100 100 100 100 100 100 100 100 100 100 100 100 52 99 13
100 100 100 100 100 100 100 100 100 100 100 100 100 100 100 100 100 100 100 100 100 100 100 100 100 100 100 100 100 92 100 96
100 100 100 100 100 100 100 100 100 100 100 100 100 97 100 100 100 100 100 100 100 100 100 100 100 100 100 100 100 100 94 86
100 100 100 100 100 97 99 100 100 90 92 100 100 96 99 71 88 100 100 89 100 100 100 100 100 100 100 100 100 100 100 100

GFSFLT2_prec_cloud_216.txt.gz
Cloud_Cover
5 39 67 95 88 57 20 48 66 41 8 5 5 5 4 0 0 0 0 0 0 0 0 2 9 96 80 33 70 42 4 0
5 5 69 44 99 91 22 7 82 98 5 5 1 6 5 0 0 0 0 5 0 0 0 0 0 0 0 0 0 0 0 0
5 6 56 13 5 8 13 47 5 14 5 1 67 4 5 0 0 2 27 19 0 0 0 0 0 0 0 2 1 2 0 3
5 6 78 25 18 8 1 4 16 5 5 6 0 0 5 5 0 0 0 0 0 0 0 0 0 0 0 0 5 63 3 6
0 4 4 5 4 4 1 5 5 5 5 5 0 0 35 56 92 99 19 8 0 0 0 0 0 0 0 0 0 5 28 74
0 0 0 0 4 0 1 4 5 4 0 0 5 4 6 41 14 28 15 0 0 0 0 0 2 0 0 0 0 0 73 6
0 1 1 0 4 69 51 99 15 57 52 96 32 0 91 100 100 100 88 23 1 0 0 0 0 0 0 4 1 0 87 5
0 0 0 1 0 49 100 53 100 100 97 96 20 30 4 98 100 100 94 100 22 0 3 3 0 0 0 0 3 4 1 2
82 0 17 87 4 3 5 66 76 22 12 47 36 0 0 0 2 16 99 100 99 2 5 5 5 5 3 0 0 0 5 5
35 21 5 26 6 0 5 100 67 34 23 7 0 1 0 0 3 5 88 99 96 52 7 5 40 100 100 85 1 0 0 4
100 89 5 5 100 96 76 100 100 97 100 100 99 100 13 0 2 21 100 95 100 89 11 5 96 100 100 100 100 26 0 0
5 37 62 58 100 100 100 100 100 100 100 100 100 100 100 58 65 24 74 100 100 100 77 75 30 93 100 90 100 32 42 0
6 5 5 14 94 100 100 100 100 100 100 100 100 100 100 100 100 100 100 73 100 100 100 100 100 100 12 4 70 52 0 5
5 52 12 9 5 24 93 100 100 95 99 100 100 100 100 100 100 100 100 100 100 100 100 100 100 100 100 26 51 8 46 2
5 5 5 5 95 88 96 96 99 100 100 100 100 100 100 100 100 100 100 100 100 100 100 100 100 100 100 92 91 96 24 25
5 7 20 16 72 92 96 95 100 100 100 100 100 100 100 100 100 100 100 100 100 100 100 100 100 100 100 100 98 99 100 100
71 91 54 80 100 100 100 100 100 100 100 100 100 100 100 100 100 100 100 100 100 100 100 100 100 100 100 100 100 100 100 100
6 6 5 5 100 100 100 100 100 100 100 100 100 100 100 100 100 100 100 100 100 100 100 100 100 100 100 100 100 100 100 100
57 51 98 68 100 100 100 100 100 100 100 100 100 100 100 61 89 100 100 100 100 100 100 100 100 100 100 100 100 100 100 100
58 60 100 94 89 100 100 100 100 100 100 100 100 100 100 100 100 100 100 100 100 100 100 100 100 100 100 100 100 100 100 100

GFSFLT2_prec_cloud_222.txt.gz
Cloud_Cover
100 100 82 59 58 28 16 85 31 53 9 5 5 5 5 5 1 0 0 0 0 0 0 0 0 0 0 0 0 0 0 0
100 100 88 85 64 36 30 21 16 6 2 5 5 5 44 14 5 2 1 0 0 0 0 0 0 0 0 0 0 0 0 0
100 91 64 55 56 45 26 18 12 5 5 4 19 7 5 7 5 5 5 1 0 0 0 0 0 0 0 0 0 0 1 10
100 49 48 34 42 53 39 38 28 27 20 62 28 11 8 5 7 5 4 5 0 0 0 0 0 0 0 0 0 0 0 14
100 84 51 15 12 55 53 53 45 37 28 34 22 6 12 12 14 31 32 8 24 11 1 0 0 0 0 0 0 0 11 17
5 12 14 7 36 40 37 35 32 35 26 19 28 26 20 11 32 48 54 44 40 30 29 5 5 5 0 0 0 0 18 22
0 1 0 1 14 6 20 10 12 3 9 6 8 14 8 13 25 35 54 65 46 38 23 6 5 8 0 3 4 1 0 8
0 0 0 1 3 5 5 55 26 6 4 5 6 25 29 57 36 22 28 25 99 23 14 4 3 26 12 2 0 5 2 1
0 0 5 5 5 5 46 100 58 12 5 5 5 5 5 44 100 100 100 100 98 55 5 4 1 0 5 5 5 5 51 98
85 82 100 100 96 66 19 43 63 24 60 22 86 100 85 97 100 91 100 100 100 100 100 100 81 11 4 5 5 19 9 99
100 29 60 97 100 100 100 94 33 72 55 52 58 81 76 47 62 97 100 100 100 100 100 100 100 100 98 72 18 5 6 100
100 100 62 100 100 100 100 100 100 100 100 100 100 100 100 63 41 33 64 100 82 100 100 100 100 100 100 100 100 84 40 71
100 60 100 12 100 100 100 100 100 100 100 100 100 100 100 100 100 100 83 58 39 98 100 100 100 100 100 83 100 100 100 100
70 86 47 8 85 81 99 47 82 100 96 100 100 100 100 100 100 100 100 100 53 99 100 100 100 100 99 100 100 100 100 100
6 53 97 100 100 88 96 100 100 100 100 96 100 100 100 100 100 94 82 100 100 79 90 97 86 100 100 100 100 100 100 100
0 5 15 100 100 55 20 5 15 5 5 58 5 5 39 70 20 65 100 100 82 100 98 100 100 100 100 100 100 100 100 100
7 5 4 6 5 15 56 51 75 60 44 29 8 40 5 5 23 93 100 100 100 100 100 100 100 100 100 100 100 100 99 100
97 54 49 69 68 70 60 53 29 53 98 49 14 5 76 59 86 100 100 100 100 100 99 100 99 100 97 99 100 100 100 100
7 18 73 69 100 45 6 30 100 97 93 80 96 98 53 32 28 44 22 91 100 100 83 100 100 90 95 94 83 100 100 100
99 14 21 12 14 7 52 99 100 100 100 100 95 5 5 5 5 8 6 49 92 59 72 38 41 31 95 100 100 100 100 100

GFSFLT2_prec_cloud_225.txt.gz
Cloud_Cover
100 100 100 100 98 12 12 18 40 5 3 5 5 4 5 5 5 3 5 0 1 0 0 0 0 0 0 0 0 0 0 6
100 100 100 100 87 34 48 100 83 8 0 3 4 3 0 0 0 1 5 5 5 0 0 0 0 0 0 0 0 0 0 0
100 100 100 100 100 100 100 100 20 14 6 8 69 5 2 0 0 0 0 0 0 0 0 0 0 0 0 0 0 2 1 5
100 100 100 100 100 100 89 76 65 48 36 45 33 17 12 0 0 0 0 0 0 0 0 0 0 1 2 0 0 0 5 6
63 99 81 94 100 100 100 100 94 66 44 97 33 26 25 23 25 23 30 10 27 8 1 2 0 2 1 1 5 0 14 15
55 45 53 52 76 100 100 100 100 96 51 38 40 40 34 32 33 31 60 45 38 31 30 6 0 0 0 0 0 0 13 21
60 46 39 45 40 57 76 67 69 40 42 36 36 32 24 20 26 34 100 100 77 40 31 20 4 0 3 3 2 1 0 24
21 33 26 38 27 26 23 22 13 26 22 18 22 14 18 23 27 47 42 71 41 33 29 49 32 5 5 5 5 4 5 5
0 12 68 100 100 99 32 5 6 14 25 54 26 5 5 8 62 79 99 96 83 72 100 100 100 89 10 54 21 24 27 11
5 11 68 100 100 100 69 95 25 54 81 13 51 61 6 25 24 28 66 44 50 98 60 31 96 100 100 100 100 76 16 5
5 5 76 100 100 100 100 100 100 100 70 92 96 95 69 88 21 20 57 100 98 77 53 14 6 64 100 100 100 100 81 100
5 5 7 48 97 100 100 100 100 70 18 55 97 100 100 100 100 100 100 100 100 100 100 77 73 100 100 100 100 100 96 100
100 100 5 24 48 54 100 100 100 74 28 78 46 96 100 100 100 100 100 100 100 100 100 100 100 100 100 100 100 100 100 100
100 100 60 58 26 100 53 100 100 100 100 100 100 100 100 100 100 96 100 100 100 97 100 100 100 100 100 100 100 100 100 100
100 99 60 81 77 100 67 97 100 100 100 100 100 100 100 100 100 100 100 100 100 95 100 100 100 100 100 100 100 100 100 100
48 38 35 9 57 100 100 100 100 96 100 100 100 100 100 84 99 99 72 84 74 64 100 100 100 100 99 97 100 100 100 100
4 6 88 55 94 100 100 98 99 84 100 72 100 78 99 100 100 100 100 100 100 100 100 100 96 93 100 99 89 95 100 100
22 9 39 100 100 98 80 70 79 100 55 67 77 100 100 100 99 99 100 100 100 100 54 30 98 97 100 99 79 91 89 91
7 5 41 100 100 100 89 32 9 14 11 79 100 95 85 96 100 100 100 18 6 5 5 12 67 89 63 60 98 100 84 90
99 36 52 100 100 99 96 43 50 67 66 13 77 69 100 99 100 42 8 5 5 9 35 60 95 35 55 84 59 26 54 92

GFSFLT2_prec_cloud_228.txt.gz
Cloud_Cover
100 100 100 41 25 12 18 5 50 46 13 0 0 0 1 1 0 0 0 0 0 0 0 0 0 0 0 0 0 0 0 0
100 100 100 100 73 88 99 100 7 0 0 0 0 0 4 0 0 0 0 0 0 0 0 0 0 0 0 0 0 0 0 0
100 96 100 100 100 64 19 23 9 9 6 4 98 8 4 0 0 0 0 4 0 1 0 0 0 0 0 0 0 0 2 4
100 100 100 100 100 99 95 82 53 43 32 29 34 24 21 3 0 0 0 0 0 4 5 0 0 0 0 0 0 0 6 0
100 100 100 100 100 100 100 100 100 94 52 100 44 36 35 35 35 31 31 11 26 11 4 5 5 2 0 0 0 0 9 8
100 100 100 100 100 100 100 100 100 100 100 100 74 55 43 41 38 21 36 37 42 33 31 6 5 5 5 1 5 5 5 9
88 90 90 100 97 100 100 100 100 100 100 90 41 39 33 26 25 23 98 100 100 49 35 25 10 5 5 5 5 5 5 6
75 80 32 84 98 100 100 100 100 100 76 57 38 24 16 17 18 24 46 96 100 66 31 27 19 5 22 60 95 81 81 58
90 93 41 50 51 100 100 100 100 54 98 25 30 22 8 4 18 26 24 38 36 31 68 99 90 72 47 31 84 100 100 100
89 97 65 31 16 100 70 98 100 100 100 100 61 96 52 8 23 27 55 67 69 34 35 30 34 80 100 99 99 54 100 100
42 100 48 39 18 88 86 41 58 100 100 100 100 100 40 25 51 20 20 73 99 100 100 100 76 61 93 100 100 97 100 100
100 100 81 100 100 100 100 67 97 32 93 100 99 100 68 77 100 99 100 100 100 100 100 100 84 92 84 97 100 100 100 100
53 79 82 19 73 100 99 99 100 100 100 100 100 31 94 100 100 100 100 100 100 100 88 100 98 100 100 92 100 100 100 95
21 5 41 11 54 31 5 24 100 100 100 99 100 80 99 100 100 100 99 100 100 95 100 100 100 71 100 100 100 94 97 88
97 97 75 46 100 100 55 86 67 94 86 87 100 100 100 100 100 99 100 100 100 100 100 100 100 100 86 100 100 100 100 98
80 100 100 100 100 100 96 79 79 100 100 100 100 100 99 84 100 64 99 100 100 76 100 100 100 100 98 81 94 100 98 83
64 70 90 99 85 52 12 26 36 36 100 100 100 100 100 100 98 98 100 100 99 100 100 100 100 99 78 100 100 76 49 100
100 100 100 95 55 16 5 58 80 83 100 100 100 99 100 75 97 77 99 100 97 100 100 100 94 97 100 100 69 72 86 95
100 100 100 100 60 69 93 96 100 100 72 78 83 90 99 61 90 96 98 92 97 99 100 98 16 65 12 41 28 66 100 82
100 100 100 100 100 100 98 100 100 99 97 85 89 85 100 77 100 98 100 82 99 100 90 59 30 14 10 29 18 26 58 99

GFSFLT2_prec_cloud_231.txt.gz
Cloud_Cover
42 95 81 21 84 68 66 100 56 26 38 1 0 0 0 0 0 0 0 0 0 0 0 0 0 0 0 0 0 0 0 0
96 64 100 82 86 67 48 31 0 0 0 0 0 3 0 0 0 0 0 0 0 0 0 0 0 0 0 0 0 0 0 0
100 91 95 38 45 18 32 8 1 5 2 1 67 0 0 5 2 0 3 4 0 0 1 0 0 0 0 0 0 0 0 0
100 79 51 69 42 85 35 20 1 2 1 2 0 0 0 0 0 0 0 1 1 0 3 3 3 3 2 0 0 0 0 0
100 84 97 90 97 99 98 86 93 67 26 30 25 6 2 0 0 0 0 2 2 12 15 0 0 2 5 5 1 0 0 0
100 100 68 100 73 100 98 99 100 100 100 100 88 38 29 13 0 0 0 0 5 20 25 20 0 2 5 5 3 1 0 3
100 100 100 100 100 100 100 100 100 100 100 100 100 20 24 6 2 0 0 0 12 14 18 9 5 5 5 5 5 5 5 3
24 100 100 100 100 99 100 100 100 100 100 100 99 51 21 2 0 0 0 0 25 97 18 22 44 22 59 5 10 6 5 5
4 41 100 100 95 76 100 100 100 100 100 100 100 100 57 5 3 0 5 6 37 52 23 21 69 5 5 5 5 5 13 24
15 34 100 100 42 18 19 93 98 34 66 100 100 100 100 100 100 86 7 23 34 33 26 24 28 6 5 91 100 30 44 60
86 32 70 98 100 29 25 94 72 70 100 100 100 100 100 100 99 100 39 51 100 100 100 98 100 100 75 7 43 95 100 100
5 19 69 91 100 80 10 100 100 100 100 86 64 46 96 100 16 54 60 96 64 51 46 90 100 33 76 9 32 12 76 42
26 5 24 97 99 97 88 71 100 100 100 100 100 57 100 100 39 66 93 91 71 98 100 92 50 60 84 30 31 25 65 30
71 47 5 38 42 82 100 100 100 100 100 100 100 100 100 100 100 98 99 100 100 100 100 100 87 100 100 100 87 48 52 6
94 24 48 18 5 92 99 98 100 100 100 100 100 100 100 87 100 100 100 100 100 100 100 100 100 98 100 84 100 86 23 5
20 2 2 5 7 59 90 79 95 76 99 100 100 100 100 99 100 100 100 100 100 100 100 100 100 100 91 94 99 100 100 98
96 16 15 18 33 5 45 92 100 99 83 100 100 100 100 100 100 97 93 100 100 100 96 94 39 86 90 100 100 90 71 78
100 100 74 72 70 46 13 96 66 74 97 71 82 100 100 80 97 95 96 76 53 59 82 100 94 94 83 100 100 100 48 95
74 56 95 100 100 100 74 73 100 100 79 48 85 80 87 70 29 24 50 100 100 100 99 99 100 81 99 100 100 83 80 92
94 99 97 100 100 100 89 88 67 90 100 97 89 80 88 51 59 100 100 100 100 94 98 100 100 100 100 100 100 100 100 62

GFSFLT2_prec_cloud_234.txt.gz
Cloud_Cover
2 6 98 29 95 5 5 61 90 99 98 43 0 0 0 0 0 0 0 0 0 0 0 0 0 0 0 0 0 0 0 0
4 8 85 95 5 8 5 5 0 0 0 0 0 6 0 1 0 0 0 0 0 0 0 0 0 0 0 0 0 0 0 0
1 5 92 84 5 10 40 14 1 7 3 1 67 0 0 5 0 0 0 0 0 0 0 0 0 0 0 0 0 0 0 0
4 5 24 8 5 5 1 0 0 0 0 0 0 0 0 0 0 0 0 0 0 1 5 0 14 0 0 0 0 0 0 0
4 5 10 44 5 5 0 20 2 5 32 11 0 0 0 0 0 2 0 6 2 21 16 5 6 0 0 0 0 0 0 0
5 5 6 7 55 5 0 0 5 20 21 22 2 0 0 0 0 0 0 0 14 16 44 77 42 11 5 5 3 5 3 0
5 5 3 5 6 59 0 0 78 97 37 58 5 6 32 6 0 0 0 0 0 12 56 42 30 29 5 3 5 2 0 0
5 5 3 0 5 98 3 47 81 99 100 100 79 82 100 6 4 1 0 0 5 11 46 44 40 27 39 5 0 0 0 0
5 5 12 3 36 94 62 89 21 100 100 100 87 100 100 100 100 100 100 83 12 20 36 31 53 65 39 30 16 6 0 3
59 38 19 76 67 82 100 5 12 74 26 5 14 78 100 100 100 100 100 87 20 49 37 54 68 49 36 25 12 25 39 3
90 76 84 31 43 52 100 100 27 100 89 32 5 47 28 17 80 100 100 22 40 82 86 9 5 16 10 21 95 30 5 6
55 5 5 5 5 9 100 100 99 75 100 100 100 100 99 100 32 98 100 88 35 99 97 44 30 95 100 97 55 51 82 31
100 5 13 5 5 9 7 59 93 99 99 100 100 100 100 100 100 100 100 100 62 62 100 21 93 100 100 100 100 87 82 65
100 100 18 82 5 5 6 63 42 96 86 57 92 100 100 100 100 100 100 85 64 98 100 83 26 94 100 100 79 65 11 44
100 100 34 45 6 5 40 5 90 99 100 94 100 100 100 100 100 100 100 68 76 100 100 100 99 96 100 91 99 100 12 6
5 100 97 97 100 11 5 5 9 42 99 100 100 100 98 100 100 100 98 98 100 100 100 100 100 100 78 76 98 90 66 96
23 7 82 100 100 5 6 5 56 96 70 97 100 100 100 100 100 100 100 100 100 100 100 100 100 98 70 86 100 90 58 100
100 9 55 46 100 18 5 5 9 35 93 100 100 100 100 100 100 100 100 95 91 87 69 72 100 83 79 76 51 60 100 94
100 100 100 13 100 27 6 5 21 96 100 100 100 100 100 100 100 96 100 100 99 89 26 37 59 85 97 36 97 100 100 100
100 100 100 100 100 63 73 72 92 98 93 100 100 100 100 100 100 100 100 100 73 17 27 86 89 54 86 99 100 100 100 100

GFSFLT2_prec_cloud_237.txt.gz
Cloud_Cover
0 0 0 6 4 4 5 3 2 5 1 14 7 0 0 0 0 0 0 0 0 0 0 0 0 0 0 0 0 0 0 0
0 0 5 5 5 10 5 2 0 0 0 0 0 6 0 0 1 0 0 0 0 0 0 0 0 0 0 0 0 0 0 0
0 0 2 5 5 13 48 18 1 7 2 1 67 0 0 5 0 0 0 0 0 0 0 0 0 0 0 0 0 0 0 0
0 0 0 66 38 5 5 0 0 0 0 0 0 0 0 0 0 0 0 0 0 0 0 1 5 5 5 4 0 0 0 0
4 5 5 22 5 5 4 0 0 0 14 14 0 0 3 0 0 1 0 0 0 4 5 5 35 5 5 5 4 0 1 1
17 5 5 2 4 30 78 5 9 3 6 18 0 1 13 1 0 0 0 0 3 4 45 97 45 26 0 0 3 3 5 5
2 6 2 4 1 6 5 5 4 0 0 61 0 0 7 2 11 2 6 9 8 65 99 24 77 30 12 5 0 0 0 0
1 0 1 5 17 8 5 6 5 7 0 0 0 0 10 65 97 65 36 56 90 83 95 100 90 99 82 64 28 3 0 3
0 5 3 5 4 5 4 75 95 1 39 19 20 0 5 57 100 100 100 99 99 100 59 99 100 100 100 100 100 85 59 28
5 45 6 10 40 5 5 22 100 74 41 100 83 1 6 42 26 96 100 100 100 48 86 100 51 75 100 100 100 100 89 100
35 40 73 19 5 5 5 5 42 100 80 68 100 71 6 78 56 68 7 20 100 100 87 98 29 95 96 97 96 74 100 100
100 56 100 34 35 5 4 5 10 92 100 89 9 100 100 67 86 100 100 91 97 100 100 100 98 100 100 100 100 100 100 100
100 98 56 100 100 5 5 5 5 9 47 92 100 100 100 100 100 100 100 75 100 100 100 100 100 100 100 100 99 100 99 85
100 100 10 85 100 18 5 5 5 12 5 5 13 80 100 100 100 100 100 96 100 100 100 74 58 100 96 100 31 92 80 100
100 100 75 5 100 100 42 11 12 5 5 5 69 85 100 100 98 100 100 100 100 100 60 52 100 79 80 62 72 59 87 38
100 100 96 36 64 100 100 18 5 6 26 6 22 48 100 100 79 29 100 100 85 88 67 86 92 81 93 98 95 100 100 100
62 100 100 100 87 100 100 100 5 66 32 19 100 82 53 27 63 97 82 65 93 92 100 85 100 34 100 75 84 95 100 99
100 100 100 100 100 100 99 100 100 72 7 5 50 64 92 85 100 100 100 100 100 100 100 82 95 87 42 5 5 92 91 100
12 100 87 100 68 97 100 100 100 100 62 17 100 100 100 100 100 100 100 100 100 100 90 45 78 99 18 5 5 80 98 100
100 93 91 71 100 100 100 100 100 100 100 63 100 100 100 100 100 100 100 100 76 66 97 99 100 19 13 9 100 85 18 100

GFSFLT2_prec_cloud_243.txt.gz
Cloud_Cover
100 100 45 7 0 1 0 0 0 0 0 0 0 0 0 0 0 0 0 0 0 0 0 0 0 0 0 0 0 0 0 0
100 100 100 87 43 2 0 0 0 0 0 0 0 0 0 0 0 0 0 0 0 0 0 0 0 0 0 0 0 0 0 0
56 100 100 100 84 34 1 4 0 0 0 0 18 5 0 0 0 0 0 0 0 0 0 0 0 0 0 0 0 0 0 0
1 44 86 97 84 92 44 14 2 2 6 2 0 3 2 0 0 0 0 0 0 0 0 0 0 0 0 0 0 0 0 0
5 3 37 22 46 88 46 25 9 0 1 3 0 0 0 0 18 1 1 0 0 0 0 0 1 0 0 0 0 0 0 0
5 6 100 79 20 27 1 0 0 0 0 4 4 0 0 0 0 0 1 0 0 0 0 0 2 0 0 5 3 0 0 0
4 5 100 100 56 7 3 0 0 0 0 3 5 1 0 0 0 0 2 25 94 62 48 10 1 3 5 2 2 3 0 0
4 50 68 100 100 13 5 1 0 0 0 2 5 5 0 0 0 0 4 20 8 34 86 98 44 40 91 96 44 8 34 6
4 23 100 100 100 100 96 5 2 0 0 0 16 80 0 38 2 0 0 0 0 0 2 3 82 100 100 100 100 100 98 83
0 82 99 100 100 100 43 32 9 5 0 1 3 82 100 26 90 1 1 1 1 67 100 100 100 100 100 100 100 100 100 100
0 98 100 100 100 100 5 73 100 5 4 4 0 3 34 100 94 3 100 82 17 39 99 100 100 100 98 100 100 100 91 45
0 2 67 100 100 62 52 45 100 58 5 5 5 1 4 5 50 4 64 100 100 98 90 41 100 100 100 100 100 100 98 100
0 0 0 58 100 100 100 10 93 100 10 46 5 5 5 5 5 3 5 17 100 100 98 94 100 100 100 100 100 100 100 8
1 0 0 2 100 100 100 100 14 100 100 3 5 16 5 5 5 2 3 4 21 81 90 71 97 100 98 99 100 100 84 52
65 0 0 0 2 99 100 100 79 95 100 35 5 100 41 5 72 11 2 5 5 7 10 49 40 100 100 100 100 100 74 5
1 5 0 0 0 3 79 61 100 83 91 87 92 100 100 92 80 92 9 5 5 17 12 5 61 96 79 100 77 13 93 6
0 0 0 0 0 0 1 5 100 100 100 100 100 100 54 98 100 100 73 15 10 48 13 96 100 66 6 17 77 20 54 12
0 0 1 3 0 0 0 5 19 73 100 100 100 100 100 100 100 100 100 100 80 19 18 54 96 95 93 65 88 66 58 86
0 0 12 2 0 5 0 3 5 5 36 94 100 100 100 100 100 100 100 100 100 99 76 88 98 96 98 100 100 41 56 39
1 3 95 5 1 75 6 0 0 2 25 68 76 100 100 68 100 100 100 100 100 100 100 99 99 100 100 99 96 57 74 38

GFSFLT2_prec_cloud_246.txt.gz
Cloud_Cover
100 41 0 0 0 4 0 0 0 0 0 0 0 0 0 0 0 0 0 0 0 0 0 0 0 0 0 0 0 0 0 0
100 75 56 36 17 5 1 1 4 3 1 0 0 0 0 0 0 0 0 0 0 0 0 0 0 0 0 0 0 0 0 0
100 100 74 53 51 14 8 0 1 4 3 0 8 5 0 0 0 0 0 0 0 0 0 0 0 0 0 0 0 0 0 0
100 100 100 100 92 74 41 9 12 20 30 18 31 30 25 0 0 0 0 0 0 0 0 0 0 0 0 0 0 0 0 0
100 100 100 100 100 100 98 66 59 54 43 33 27 23 26 25 30 2 0 0 0 0 0 0 5 0 1 0 0 0 0 0
100 100 100 100 100 100 100 71 64 62 40 13 10 28 30 28 32 15 1 1 1 1 2 5 3 5 5 0 0 0 0 0
21 92 100 81 100 100 100 98 37 13 22 0 0 2 4 17 12 17 3 0 12 90 61 17 5 16 35 7 5 5 5 5
11 11 23 27 50 93 100 100 98 8 4 0 0 0 29 0 0 2 5 1 4 4 3 5 16 8 26 97 38 9 12 5
78 0 0 1 100 100 100 100 100 76 11 3 0 0 2 52 78 5 24 5 0 0 5 5 5 68 87 100 100 100 99 67
100 2 0 20 5 18 95 100 100 74 6 74 4 1 0 0 70 100 13 5 100 100 6 26 100 98 98 100 100 100 100 100
100 2 0 92 28 45 100 100 27 99 10 60 59 5 1 5 5 10 86 25 68 68 5 57 99 46 52 100 100 100 94 100
100 5 0 13 81 5 9 48 87 100 75 44 96 37 5 5 5 5 5 5 4 17 86 60 98 24 64 100 100 86 45 34
98 95 5 0 5 5 5 5 100 100 100 100 78 7 8 100 5 54 32 5 5 2 5 31 94 20 54 100 100 78 97 100
100 74 5 0 5 5 1 62 100 100 100 92 94 85 16 14 46 100 58 59 36 5 5 5 5 56 100 96 32 99 100 48
100 87 2 0 5 5 5 5 99 100 100 100 36 93 54 82 50 100 100 12 6 5 5 5 5 5 5 11 76 99 70 48
100 26 0 0 1 5 5 0 6 79 95 100 100 99 100 96 100 89 100 100 100 69 6 5 5 6 6 19 90 14 44 95
96 5 5 0 0 4 5 1 0 5 5 54 100 97 99 88 100 100 100 100 100 100 100 98 10 7 88 44 55 36 89 100
43 74 5 0 0 0 1 0 0 0 5 5 16 6 36 49 100 100 100 100 100 100 100 100 100 100 99 100 90 50 78 67
100 94 5 5 2 0 1 0 0 0 0 4 5 7 46 41 98 100 100 100 100 76 100 100 100 100 100 93 100 99 99 68
100 79 5 5 20 33 5 0 0 0 1 3 0 18 11 5 6 100 100 100 100 100 78 99 100 100 100 100 98 100 100 89

GFSFLT2_prec_cloud_249.txt.gz
Cloud_Cover
56 33 14 0 0 2 0 0 0 0 0 0 0 0 0 0 0 0 0 0 0 0 0 0 0 0 0 0 0 0 0 0
58 66 35 44 27 19 2 2 3 0 1 0 0 0 0 0 0 0 0 0 0 0 0 0 0 0 0 0 0 0 0 0
99 69 44 47 46 30 10 1 1 2 5 0 0 7 0 0 0 0 0 0 0 0 0 0 0 0 0 0 0 0 0 0
85 74 55 78 36 52 27 8 11 23 39 19 29 29 25 0 0 0 0 0 0 0 0 0 0 0 0 0 0 0 0 0
98 39 86 51 24 64 92 71 60 69 58 42 43 40 33 32 27 5 0 0 0 4 2 0 3 5 4 0 2 4 0 0
97 88 85 76 32 91 100 100 100 100 92 50 46 64 50 39 34 18 1 4 5 3 98 59 5 4 8 5 2 0 12 5
94 100 100 100 78 100 100 100 100 91 97 50 30 34 40 28 31 22 4 0 0 0 1 13 5 5 21 4 5 4 4 100
97 100 100 100 100 100 100 100 99 86 78 39 8 2 10 21 28 31 8 5 5 3 0 0 0 51 63 41 6 5 5 5
94 100 100 100 98 100 100 75 48 100 100 5 5 5 1 6 12 24 100 86 5 5 63 99 15 25 100 100 98 58 98 22
100 100 100 100 98 100 80 28 96 100 83 5 5 63 14 1 5 5 5 84 90 5 18 41 46 9 82 70 74 100 100 100
100 100 100 100 52 49 71 71 35 28 5 66 18 7 99 5 8 8 5 5 8 21 5 5 5 98 100 100 37 100 100 95
100 100 100 100 8 5 100 45 5 2 5 76 100 50 4 5 8 61 5 5 5 26 6 5 5 5 9 5 89 98 85 100
100 100 100 100 5 4 5 5 0 5 4 33 28 100 84 5 42 22 5 100 13 12 44 5 5 5 5 5 74 100 10 77
100 100 100 100 70 5 12 1 0 94 62 5 6 87 92 94 79 86 5 78 100 100 8 5 9 5 5 29 27 5 5 100
84 72 100 99 35 89 92 6 5 22 92 5 5 83 92 68 99 99 100 70 100 100 93 99 5 64 7 15 4 5 5 80
100 92 100 86 25 100 100 6 5 5 5 5 5 18 71 100 100 91 100 100 100 100 100 100 93 100 75 100 79 11 22 27
100 100 82 6 100 100 100 100 54 0 5 26 9 3 5 47 88 28 55 98 100 100 100 100 100 100 100 100 100 91 97 55
100 100 100 100 50 96 100 16 56 5 5 28 33 35 16 55 5 70 99 50 91 100 100 100 58 94 100 100 100 100 100 45
100 100 100 100 85 6 34 100 69 53 5 49 36 55 83 100 29 5 10 100 94 89 100 100 100 92 100 100 99 100 100 94
100 100 100 100 100 82 100 98 100 23 5 16 5 5 87 67 5 4 5 5 8 99 100 100 100 100 100 95 95 100 100 100